Regional Weather Roundup
Issued by NWS

Home | Current Version | Previous Version | Text Only | Print | Product List | Glossary On
Versions: 1 2 3 4 5 6 7 8 9 10 11 12 13 14 15 16 17 18 19 20 21 22 23 24 25 26 27 28 29 30 31 32 33 34 35 36 37 38 39 40 41 42 43 44 45 46 47 48 49 50
000
ASUS44 KLUB 291710
RWRTX
WEST TEXAS WEATHER ROUNDUP
NATIONAL WEATHER SERVICE LUBBOCK TX
1200 PM CDT WED MAR 29 2017

NOTE: "FAIR" INDICATES FEW OR NO CLOUDS BELOW 12,000 FEET WITH NO
SIGNIFICANT WEATHER AND/OR OBSTRUCTIONS TO VISIBILITY.

TXZ004-006>008-010-012-014-016-OKZ002-291800-
TEXAS PANHANDLE/OKLAHOMA PANHANDLE

CITY           SKY/WX    TMP DP  RH WIND       PRES   REMARKS
AMARILLO       LGT RAIN  40  39  97 N20G32    29.87R WCI  30
BORGER         LGT RAIN  43  40  89 N22G31    29.88R
CANADIAN       RAIN      46  45  95 N14       29.83R
DALHART        LGT RAIN  43  39  86 N24G43    29.91R
DUMAS          CLOUDY    39  37  93 N25G36    29.91R WCI  28
GUYMON         LGT RAIN  43  41  93 N24G36    29.87R
HEREFORD       LGT RAIN  42  41  99 N35       29.88R
PAMPA          RAIN      43  42  95 N22       29.85R
PERRYTON       CLOUDY    45  43  93 N23G32    29.82R
$$

TXZ026-029-035-045-048-291800-
SOUTHERN PANHANDLE/SOUTH PLAINS/ROLLING PLAINS

CITY           SKY/WX    TMP DP  RH WIND       PRES   REMARKS
CHILDRESS      LGT RAIN  52  49  89 N26G32    29.76R
SEMINOLE       PTSUNNY   51  36  58 N24G33    29.89R
LUBBOCK        LGT RAIN  46  42  86 N26G36    29.80R FOG
PLAINVIEW      CLOUDY    44  37  78 N32G38    29.81R
SNYDER         PTSUNNY   58  45  60 W18G25    29.79R
$$

TXZ052-054-060>062-072-078-127-140-154-169-291800-
PERMIAN BASIN/CONCHO VALLEY/BIG COUNTRY/EDWARDS PLATEAU

CITY           SKY/WX    TMP DP  RH WIND       PRES   REMARKS
ABILENE        SUNNY     66  49  54 W18       29.76R
BIG SPRING       N/A    N/A N/A N/A MISG        N/A
BROWNWOOD      SUNNY     68  45  42 W18G25    29.80R
JUNCTION       SUNNY     72  43  35 W14G22    29.82S
MIDLAND        MOSUNNY   61  41  47 NW23G31   29.86R
ODESSA         PTSUNNY   61  40  45 NW18G30   29.87R
SAN ANGELO     SUNNY     69  41  36 W18       29.80R
SONORA         SUNNY     70  39  32 W12G21    29.89R
SWEETWATER     SUNNY     62  48  58 W17G25    29.80R
WINK             N/A     62  39  42 MISG      29.89R
$$

TXZ055-058-074-075-080-082-291800-
FAR WEST/SOUTHWEST MOUNTAINS/TRANS PECOS

CITY           SKY/WX    TMP DP  RH WIND       PRES   REMARKS
ALPINE         MOSUNNY   62  28  27 W22G32    30.00R
DRYDEN           N/A     75  30  19 W17G30    29.84R
EL PASO        MOSUNNY   56  36  47 NE7       29.97R
FORT STOCKTON  PTSUNNY   65  35  33 NW25G37   29.90R
GUADALUPE PASS CLOUDY    52  37  56 W9        29.98R
MARFA          SUNNY     61  28  28 W30G39    29.99R
PECOS          PTSUNNY   61  39  44 CALM      29.92R
PRESIDIO       FAIR      70  28  21 W23G35    29.96R
$$

TXZ014-016-019-021>030-083-291800
TEXAS TECH WEST TEXAS MESONET/TEXAS PANHANDLE/NORTHERN SOUTH PLAINS

CITY           SKY/WX    TMP DP  RH WIND       PRES   REMARKS
ABERNATHY 5ENE   N/A     44  41  90 N25       29.83R
AMARILLO 9NNE    N/A     41  40  95 N22       29.89R
AMARILLO 7SSE    N/A     40  38  93 N22       29.87S WCI  30
AMHERST 1NE      N/A     43  40  91 N28       29.87R
BOOTLEG 11WNW    N/A     39  37  90 N28       29.94R WCI  28
CANADIAN 6E      N/A     45  43  93 NW18      29.81R
CAPROCK CYN SP   N/A     47  43  87 N18G30    29.81R
CHILDRESS 2NNE   N/A     52  49  89 NW23      29.76R
CLARENDON 2WSW   N/A     44  41  89 N24       29.81R
CLAUDE 12SW    LGT RAIN  40  38  93 N29       29.84R WCI  29
DIMMITT 2NE      N/A     40  38  92 NW25G37   29.87R WCI  29
FLOYDADA 2NNE    N/A     46  43  88 N23       29.79R
FRIONA 2NE       N/A     39  37  92 N25       29.91R WCI  28
GOODLETT 3W      N/A     53  50  89 N16       29.74R
HART 3N          N/A     41  38  90 N26       29.85R
HEREFORD 2NW     N/A     41  38  87 N25       29.89R
MCLEAN 1E      LGT RAIN  44  44  99 NW21      29.79R
MEMPHIS 1NE      N/A     48  45  88 N26       29.78R
MULESHOE 2SSW    N/A     42  38  87 N21G30    29.90R
OLTON 6S         N/A     42  38  86 N31       29.84R
PALO DURO SP     N/A     40  37  91 N15       29.87R WCI  31
PAMPA 2E       LGT RAIN  42  41  97 N23       29.83R
PLAINVIEW 1S     N/A     44  39  83 N25G36    29.82R
SILVERTON 7ESE   N/A     47  44  88 NW26      29.81R
TULIA 2ENE       N/A     42  40  92 N30       29.84R
TURKEY 2WSW      N/A     48  46  91 N24       29.79R
UMBARGER 3NNE    N/A     40  37  91 N29       29.89R WCI  28
$$

TXZ033>036-039>041-045>048-291800
TEXAS TECH WEST TEXAS MESONET/SOUTH PLAINS

CITY           SKY/WX    TMP DP  RH WIND       PRES   REMARKS
AIKEN 3WSW       N/A     45  42  86 N28       29.82R
ANDREWS 2NE      N/A     55  35  47 NW22      29.88R
ANTON 6SSW       N/A     44  41  89 N24       29.85R
BROWNFIELD 2S    N/A     46  38  71 NW24      29.86R
DENVR CTY 7WNW   N/A     45  34  64 N21G30    29.90R
GAIL 2ESE        N/A     58  43  57 W18       29.80R
LAMESA 2SE       N/A     53  40  61 NW23      29.84S
LEVELLAND 4S     N/A     44  40  83 NW26      29.86R
LUBBOCK 3WNW     N/A     45  44  95 N17       29.83R
MORTON 1ENE      N/A     43  39  86 N26       29.88R
ODONNELL 1N      N/A     52  39  62 NW21      29.84R
PLAINS 3N        N/A     44  35  70 NW30      29.89R
RALLS 1SE        N/A     48  43  84 N22       29.80R
REESE CENTER     N/A     43  41  92 N26       29.84R
SEAGRAVES 1SW    N/A     49  37  63 NW26      29.88R
SEMINOLE 2NNE    N/A     50  35  55 NW20      29.88R
SLATON 2NE     LGT RAIN  47  45  93 NW17      29.80R
SNYDER 3E        N/A     59  47  64 W16       29.77R
SUNDOWN 8SW      N/A     43  40  89 NW23      29.87R
TAHOKA 3NNE      N/A     51  44  77 NW22      29.82R
WOLFFORTH 6SSW   N/A     46  42  86 N29       29.84R
$$

TXZ031-032-036>038-042>044-291800-
TEXAS TECH WEST TEXAS MESONET/ROLLING PLAINS

CITY           SKY/WX    TMP DP  RH WIND       PRES   REMARKS
ASPERMONT 3NE    N/A     63  50  62 W12       29.74R
FLUVANNA 3WNW    N/A     54  46  75 W21       29.78R
GRAHAM 5SSW      N/A     53  44  72 W22       29.80R
GUTHRIE 10WSW    N/A     59  50  71 N17       29.73R
HASKELL 1NW      N/A     62  49  60 W14       29.73R
JAYTON 1SSE      N/A     60  48  65 W14       29.74S
KNOX CITY 3NW    N/A     64  50  61 SW7       29.72R
LK A HENRY 1NW   N/A     57  45  64 W10       29.77R
NORTHFIELD 1S    N/A    N/A N/A N/A N23       29.78R
ODELL 4ENE       N/A     53  52  97 N16       29.74R
PADUCAH 10SW     N/A     53  50  90 N17       29.75R
POST 1NE         N/A     56  45  64 W17       29.79R
RRING SPRGS 3N   N/A     49  47  93 N25G36    29.76R
SEYMOUR 3NW      N/A     64  48  56 SW10      29.70R
SPUR 1W          N/A     57  48  71 N13       29.75R
WEINERT 2NNE     N/A     63  50  62 W12       29.73R
WHITE RVR 6NE    N/A     55  46  70 N13       29.77R
$$

TXZ052-054-060>062-072-078-127-140-154-169-291800-
TEXAS TECH WEST TEXAS MESONET/PERMIAN BASIN/
CONCHO VALLEY/BIG COUNTRY/EDWARDS PLATEAU

CITY           SKY/WX    TMP DP  RH WIND       PRES   REMARKS
COYANOSA 2N      N/A     65  37  35 NW25      29.90S
JUNCTION 1SSW    N/A     71  44  37 W10       29.84S
MERTZON 3NNE     N/A     67  42  39 W21       29.83S
SAN ANGELO 7NW   N/A     67  40  37 W18       29.80R
STRLNG CT 4WSW   N/A     64  44  48 W14       29.82R
ST LAWRNCE 5SW   N/A     60  47  60 W21       29.84R
SWEETWATR 11SW   N/A     62  47  58 W18       29.79R
WALL 1E          N/A     66  49  54 W15       29.83R
$$

TXZ055-058-074-075-080-082-291800-
TEXAS TECH WEST TEXAS MESONET/FAR WEST/SOUTHWEST MOUNTAINS/TRANS PECOS

CITY           SKY/WX    TMP DP  RH WIND       PRES   REMARKS
PRSMN GAP BBNP   N/A     71  26  18 SW14      29.91S
GUADLPE MTN NP   N/A     48  35  60 NE3       29.99R
$$




USA.gov is the U.S. government's official web portal to all federal, state and local government web resources and services.